AO-07 1 07530U 74089B 24039.56503510 -.00000031 00000-0 95172-4 0 9999 2 07530 101.9718 33.0328 0012105 332.9909 140.2622 12.53671990252792 UO-11 1 14781U 84021B 24039.49938583 .00002563 00000-0 29898-3 0 9998 2 14781 97.6886 12.8575 0009147 135.8673 224.3274 14.86004136129222 AO-16 1 20439U 90005D 24039.57271662 .00000405 00000-0 16415-3 0 9995 2 20439 98.8987 41.0808 0009918 227.8556 247.4968 14.33274767778761 LO-19 1 20442U 90005G 24039.53633230 .00000398 00000-0 16086-3 0 9993 2 20442 98.8725 26.4705 0011264 201.0810 158.9911 14.33431935779208 AO-27 1 22825U 93061C 24039.71571309 .00000244 00000-0 11140-3 0 9999 2 22825 98.8091 91.0282 0009488 97.2003 263.0258 14.30422989584373 IO-26 1 22826U 93061D 24039.58855686 .00000286 00000-0 12665-3 0 9997 2 22826 98.8037 90.7610 0010004 84.4262 275.8061 14.30796627584361 FO-29 1 24278U 96046B 24039.43023577 -.00000039 00000-0 -49921-5 0 9991 2 24278 98.5660 351.1832 0350468 164.2309 197.0083 13.53171428356886 NOAA-15 1 25338U 98030A 24039.75907096 .00000358 00000-0 16645-3 0 9993 2 25338 98.5839 69.5038 0010009 348.8420 11.2537 14.26488812338989 GO-32 1 25397U 98043D 24039.46101350 .00000227 00000-0 11897-3 0 9998 2 25397 98.9044 4.3744 0001711 136.2400 223.8914 14.23981962328951 ISS 1 25544U 98067A 24039.70071581 .00018004 00000-0 32668-3 0 9998 2 25544 51.6393 237.0356 0002242 217.5704 188.1044 15.49651223438471 NO-44 1 26931U 01043C 24039.43355507 .00000389 00000-0 17863-3 0 9997 2 26931 67.0521 306.7311 0005177 272.1658 87.8851 14.31116726167380 SO-50 1 27607U 02058C 24039.81846933 .00002139 00000-0 30899-3 0 9994 2 27607 64.5533 258.9713 0040360 166.8843 193.3321 14.78291999137400 CO-55 1 27844U 03031E 24039.58787719 .00000724 00000-0 34031-3 0 9999 2 27844 98.6795 48.4275 0010192 155.0728 205.0944 14.23068992 69353 CO-57 1 27848U 03031J 24039.54273032 .00000611 00000-0 29329-3 0 9996 2 27848 98.6827 48.6965 0009808 170.2799 189.8571 14.22538787 69156 RS-22 1 27939U 03042A 24039.79696806 .00002641 00000-0 45534-3 0 9995 2 27939 98.2698 194.1498 0013286 107.7618 23.9519 14.69316862 89271 NOAA-18 1 28654U 05018A 24039.78161939 .00000360 00000-0 21588-3 0 9997 2 28654 98.8862 117.7829 0015092 72.1857 288.0960 14.13118284964982 CO-58 1 28895U 05043F 24039.33111658 .00003190 00000-0 57878-3 0 9991 2 28895 98.1799 175.2225 0016810 50.2491 310.0191 14.66853070975419 CO-65 1 32785U 08021C 24039.17158493 .00007243 00000-0 66926-3 0 9990 2 32785 97.7380 5.9074 0012745 45.8911 314.3356 14.94825360856043 AAUSAT2 1 32788U 08021F 24039.44990531 .00020524 00000-0 12278-2 0 9997 2 32788 97.5838 20.0549 0003781 260.8106 99.2696 15.11065695858698 CO-66 1 32791U 08021J 24039.44835671 .00011628 00000-0 92094-3 0 9994 2 32791 97.6812 11.7523 0008097 15.0320 345.1143 15.00713022857126 RS-30 1 32953U 08025A 24039.81961012 .00000011 00000-0 90316-5 0 9999 2 32953 82.5059 169.9369 0019280 30.3812 329.8381 12.43135208713052 PRISM 1 33493U 09002B 24039.56159008 .00020792 00000-0 11701-2 0 9997 2 33493 98.2254 76.5736 0013182 336.3550 23.7072 15.13212854819403 NOAA-19 1 33591U 09005A 24039.78590268 .00000337 00000-0 20532-3 0 9996 2 33591 99.0673 94.1165 0012953 298.6322 61.3546 14.12922643773359 SRMSAT 1 37841U 11058D 24039.48832484 .00000598 00000-0 18298-3 0 9990 2 37841 19.9704 221.1857 0011874 108.6472 267.4400 14.11031476636220 HRBE 1 37855U 11061F 24039.25292545 .00066470 00000-0 11817-2 0 9992 2 37855 101.6867 143.1564 0079113 26.0849 334.4338 15.46452693672775 RS-40 1 38735U 12041C 24039.78984533 .00000063 00000-0 38122-3 0 9997 2 38735 82.4717 250.5473 0017710 139.1678 221.0732 12.42602944523207 ZACUBE-1 1 39417U 13066B 24039.43109687 .00006859 00000-0 74548-3 0 9995 2 39417 97.7183 358.6233 0050946 228.0120 131.6752 14.87444323552287 Delfi-N3xt 1 39428U 13066N 24039.73505581 .00006977 00000-0 93580-3 0 9991 2 39428 97.8404 321.7285 0105639 146.7258 214.0653 14.75803848547167 GOMX-1 1 39430U 13066Q 24039.71005330 .00004648 00000-0 78951-3 0 9997 2 39430 97.7524 281.8714 0141166 304.5231 54.2711 14.63225908544107 LO-74 1 39440U 13066AA 24039.85981589 .00008808 00000-0 10750-2 0 9996 2 39440 97.8007 346.5891 0071515 337.8503 21.9625 14.81722274550370 AO-73 1 39444U 13066AE 24039.81794438 .00008006 00000-0 82112-3 0 9993 2 39444 97.7034 1.8454 0049168 208.8177 151.0323 14.89786999551421 SPROUT 1 39770U 14029E 24039.35394937 .00062425 00000-0 29239-2 0 9999 2 39770 98.0022 181.6387 0006412 256.2040 103.8480 15.19451810527783 DTUSAT-2 1 40030U 14033W 24039.36491828 .00007596 00000-0 67990-3 0 9998 2 40030 97.9937 348.7370 0008751 221.9803 138.0747 14.96107861523273 EO-80 1 40032U 14033Y 24039.80580826 .00009783 00000-0 87275-3 0 9994 2 40032 97.9937 349.2001 0008652 217.5803 142.4814 14.96156914523832 HODOYOSHI-1 1 40299U 14070B 24039.80519847 .00023362 00000-0 56000-3 0 9996 2 40299 97.1612 102.0163 0009626 139.1344 221.0627 15.41359922515151 GRIFEX 1 40379U 15003D 24039.72934542 .00587015 14525-3 14732-2 0 9991 2 40379 99.0729 45.9789 0027703 148.9539 211.3376 15.94953555500202 XW-2C 1 40906U 15049H 24039.75102948 .00026940 00000-0 79791-3 0 9999 2 40906 97.4881 53.9305 0011478 53.8409 306.3894 15.34779712464578 XW-2D 1 40907U 15049J 24039.78505042 .00034832 00000-0 90102-3 0 9993 2 40907 97.4841 55.4499 0009963 46.8980 313.3097 15.38958541464732 LILACSAT-2 1 40908U 15049K 24039.79033996 .00010205 00000-0 42950-3 0 9995 2 40908 97.5274 47.8258 0015018 85.0978 275.1972 15.23471232463773 XW-2E 1 40909U 15049L 24039.81361809 .00203244 00000-0 15684-2 0 9996 2 40909 97.4270 66.5408 0002837 22.7821 337.3567 15.71324316465804 XW-2F 1 40910U 15049M 24039.82324293 .00186776 00000-0 15537-2 0 9992 2 40910 97.4374 65.7707 0003579 20.0229 340.1173 15.69555933465523 XW-2B 1 40911U 15049N 24039.76315382 .00034022 00000-0 89274-3 0 9991 2 40911 97.4819 55.6818 0010096 48.2703 311.9404 15.38522615464608 IO-86 1 40931U 15052B 24006.28856983 .00001263 00000-0 84248-4 0 9993 2 40931 6.0004 76.3799 0013541 291.8204 68.0484 14.77555377447321 ChubuSat-2 1 41338U 16012B 24039.69336532 .00007215 00000-0 47018-3 0 9992 2 41338 31.0016 143.0705 0011718 20.0093 340.1002 15.06488502438042 ChubuSat-3 1 41339U 16012C 24039.66146110 .00006750 00000-0 44419-3 0 9996 2 41339 31.0081 141.0827 0011774 25.5456 334.5761 15.06104144438027 Horyu-4 1 41340U 16012D 24039.49998643 .00013480 00000-0 74530-3 0 9990 2 41340 31.0034 98.2921 0010901 101.3469 258.8395 15.12630600438471 e-st@r-II 1 41459U 16025D 24039.60331518 .00123853 00000-0 15918-2 0 9990 2 41459 98.1494 273.4719 0060961 344.9481 14.9955 15.56428232429295 Lapan A3 1 41603U 16040E 24039.81694750 .00004801 00000-0 20027-3 0 9990 2 41603 97.1508 59.4440 0011746 191.5062 168.5909 15.24066081423511 Pratham 1 41783U 16059A 24039.60601649 .00001443 00000-0 27865-3 0 9997 2 41783 97.8486 64.9870 0034049 72.4548 288.0371 14.64496600393577 CAS-2T 1 41847U 16066G 24039.45991913 .00003128 00000-0 46796-3 0 9991 2 41847 98.4761 111.6995 0355860 207.6619 150.5237 14.40658804380814 CAS-4B 1 42759U 17034B 24039.81122654 .00017528 00000-0 73229-3 0 9998 2 42759 43.0123 234.9204 0012217 215.3520 144.6521 15.23281792367646 CAS-4A 1 42761U 17034D 24039.82234913 .00017331 00000-0 72224-3 0 9990 2 42761 43.0121 233.3094 0012601 217.4970 142.5002 15.23368932367650 NIUSat 1 42766U 17036B 24039.60964448 .00116684 00000-0 11843-2 0 9996 2 42766 97.1221 73.4969 0003365 330.9289 29.1783 15.64832361369218 Aalto 1 1 42775U 17036L 24039.62101351 .00049593 00000-0 90061-3 0 9998 2 42775 97.1261 69.4858 0006060 341.5871 18.5161 15.49397768368945 URSA MAIOR 1 42776U 17036M 24039.57074101 .00070009 00000-0 10316-2 0 9995 2 42776 97.1241 71.9317 0004394 333.0449 27.0577 15.55167442369080 Max Valier Sat 1 42778U 17036P 24039.61127745 .00062115 00000-0 87290-3 0 9990 2 42778 97.1252 75.9922 0003873 333.5539 26.5519 15.56492657369266 D-SAT 1 42794U 17036AF 24039.49046584 .00006716 00000-0 49887-3 0 9990 2 42794 97.4828 26.2490 0109966 224.9184 134.3103 14.98564833361286 TechnoSat 1 42829U 17042E 24039.48543029 .00004839 00000-0 44289-3 0 9996 2 42829 97.3803 227.9508 0013461 145.0678 215.1430 14.95330464357781 AO-91 1 43017U 17073E 24039.60486138 .00012965 00000-0 84157-3 0 9998 2 43017 97.5994 279.8047 0220235 6.3236 354.0680 14.90326538336347 TianYi 2 1 43155U 18008A 24039.79349610 .00053767 00000-0 13304-2 0 9993 2 43155 97.2623 93.2685 0009214 177.9640 182.1646 15.40223814334875 Zhou Enlai 1 43156U 18008B 24039.77847658 .00062365 00000-0 13966-2 0 9995 2 43156 97.2665 94.0242 0007084 178.1903 181.9372 15.43211046334834 TianYi 6 1 43158U 18008D 24039.66665007 .00038069 00000-0 11324-2 0 9991 2 43158 97.2745 89.1311 0008053 184.9639 175.1526 15.34603026334531 S-Net D 1 43186U 18014G 24039.62224747 .00007316 00000-0 55007-3 0 9995 2 43186 97.6009 303.8297 0011678 84.5869 275.6688 15.02803598329030 S-Net B 1 43187U 18014H 24039.62397660 .00007008 00000-0 52707-3 0 9993 2 43187 97.6015 303.7719 0012658 80.2815 279.9839 15.02797106329031 S-Net A 1 43188U 18014J 24039.62348404 .00007190 00000-0 54053-3 0 9994 2 43188 97.6020 303.8740 0012477 81.0225 279.2412 15.02803918329035 S-Net C 1 43189U 18014K 24039.62630005 .00006752 00000-0 50766-3 0 9996 2 43189 97.6035 303.7984 0014536 74.2481 286.0346 15.02799158327587 CubeBel-1 1 43666U 18083E 24039.81892763 .00347866 00000-0 18514-2 0 9992 2 43666 97.3398 82.1663 0002243 330.7077 29.4065 15.79511683293893 Changshagaoxin 1 43669U 18083H 24039.81911717 .00112520 00000-0 14804-2 0 9991 2 43669 97.3505 74.0341 0003506 21.0120 339.1279 15.58081747293451 Ten-Koh 1 43677U 18084G 24039.39692926 .00004333 00000-0 40320-3 0 9997 2 43677 98.0404 189.3976 0015407 87.2015 273.0968 14.94775711287320 PO-101 1 43678U 18084H 24039.75596288 .00003148 00000-0 29673-3 0 9993 2 43678 98.0502 194.1701 0010380 98.5695 261.6701 14.94527580287589 QO-100 1 43700U 18090A 24039.58717274 .00000146 00000-0 00000-0 0 9992 2 43700 0.0205 111.9562 0000935 201.5211 61.8603 1.00268179 19050 MinXSS-2 1 43758U 18099A 24039.45219174 .00011130 00000-0 76907-3 0 9993 2 43758 97.5740 104.0203 0018768 44.1980 316.0742 15.05764023283242 AO-95 1 43770U 18099N 24039.67815570 .00008550 00000-0 63280-3 0 9995 2 43770 97.5667 100.4216 0016546 84.0909 276.2202 15.03287936283096 RANGE-B 1 43772U 18099Q 24039.40044842 .00013036 00000-0 89240-3 0 9993 2 43772 97.5434 103.3054 0005709 5.9844 354.1451 15.06201066283164 RANGE-A 1 43773U 18099R 24039.68846590 .00006286 00000-0 49836-3 0 9990 2 43773 97.5259 97.0823 0019627 54.1295 306.1749 15.00729700283007 MOVE-II 1 43780U 18099Y 24039.72166823 .00018949 00000-0 11557-2 0 9994 2 43780 97.5412 104.3687 0008565 67.2920 292.9214 15.10354259283356 SNUSat 2 1 43782U 18099AA 24039.43108535 .00007597 00000-0 57190-3 0 9991 2 43782 97.5359 100.0028 0016028 30.5266 329.6889 15.02687999283075 SnugLite 1 43784U 18099AC 24039.40511850 .00008071 00000-0 59451-3 0 9998 2 43784 97.5159 99.4253 0006036 47.2478 312.9255 15.03578756283123 ITASat 1 1 43786U 18099AE 24038.92149129 .00007999 00000-0 60939-3 0 9993 2 43786 97.5276 99.9426 0018395 73.0313 287.2926 15.02186250283007 EAGLET 1 1 43790U 18099AJ 24039.39945719 .00005374 00000-0 42158-3 0 9997 2 43790 97.5414 100.8534 0016969 64.7726 295.5255 15.01236519282793 ESEO 1 43792U 18099AL 24039.59103575 .00003049 00000-0 25695-3 0 9991 2 43792 97.5397 98.6007 0014305 52.8329 307.4198 14.98837295282784 CSIM 1 43793U 18099AM 24039.17593164 .00015914 00000-0 96907-3 0 9991 2 43793 97.5486 105.4407 0014986 44.3316 315.9111 15.10387238283122 JO-97 1 43803U 18099AX 24039.06227613 .00010081 00000-0 72246-3 0 9994 2 43803 97.5397 100.7927 0011135 31.5582 328.6309 15.04517488283110 Suomi 100 1 43804U 18099AY 24038.85839666 .00009620 00000-0 69851-3 0 9993 2 43804 97.5467 100.3989 0017274 28.9085 331.3094 15.03964956283073 CHOMPTT 1 43855U 18104G 24039.36401994 .00101852 00000-0 10980-2 0 9990 2 43855 85.0212 3.1003 0011380 117.3147 242.9277 15.63262176287143 ISAT 1 43879U 18111D 24039.67518713 .00013204 00000-0 88469-3 0 9997 2 43879 97.6317 306.2910 0015816 81.1265 279.1752 15.06909658277874 UWE-4 1 43880U 18111E 24039.26409054 .00011081 00000-0 75424-3 0 9999 2 43880 97.6234 306.1939 0019679 90.8079 269.5403 15.06312459279858 Sparrow 1 43881U 18111F 24039.28852146 .00013172 00000-0 87342-3 0 9991 2 43881 97.6384 307.5820 0011985 118.3303 241.9135 15.07339507279891 Lume 1 1 43908U 18111AJ 24039.66928502 .01358409 12751-2 13790-2 0 9992 2 43908 97.0906 289.4839 0004834 96.6480 263.5355 16.11230634286329 AISTechSat 3 1 44103U 19018AB 24039.75371904 .00137539 00000-0 12181-2 0 9998 2 44103 97.2105 104.5742 0004437 123.6838 236.4847 15.68168197271185 AISat 1 1 44104U 19018AC 24039.81631620 .00071086 00000-0 71464-3 0 9994 2 44104 97.3655 143.0391 0026108 105.5292 254.8853 15.64791606272474 Prox-1 1 44339U 19036A 24039.16409904 .00012657 00000-0 23412-2 0 9998 2 44339 24.0019 339.7421 0008720 352.6978 7.3388 14.63625720246150 SONATE 1 44400U 19038Q 24039.47289844 .00019308 00000-0 70098-3 0 9995 2 44400 97.7062 28.4480 0017034 197.4625 162.6030 15.28218961254237 BeeSat 9 1 44412U 19038AC 24039.24753346 .00082960 00000-0 14127-2 0 9990 2 44412 97.6858 35.9985 0011702 155.8232 204.3571 15.51028597254451 JAISAT-1 1 44419U 19038F 24039.50089148 .00079008 00000-0 13573-2 0 9991 2 44419 97.6842 37.3649 0011405 153.5943 206.5891 15.50799160254873 Taurus 1 1 44530U 19059C 24039.80829827 .00009733 00000-0 23627-2 0 9996 2 44530 98.5634 156.9160 0012640 92.7178 267.5464 14.53041802232962 Duchifat 3 1 44854U 19089C 24039.53387243 .00016291 00000-0 93760-3 0 9992 2 44854 36.9595 113.2650 0007957 113.9360 246.2220 15.11767966228541 OPS-SAT 1 44878U 19092F 24039.54501841 .00083469 00000-0 12782-2 0 9990 2 44878 97.4565 238.9821 0006203 359.1273 0.9968 15.54045855230226 TO-108 1 44881U 19093C 24039.80714607 .00001806 00000-0 22692-3 0 9997 2 44881 97.8402 119.0783 0015210 30.6250 329.5848 14.83250311223869 FloripaSat 1 1 44885U 19093G 24039.81116281 .00006630 00000-0 72071-3 0 9992 2 44885 97.8502 123.5379 0013495 27.1115 333.0804 14.88348622224118 RS-44 1 44909U 19096E 24039.79997538 .00000010 00000-0 -20947-5 0 9995 2 44909 82.5226 190.7267 0217261 354.0093 5.8415 12.79726343192478 BY70-2 1 45857U 20042B 24039.81759597 .00063224 00000-0 42626-2 0 9995 2 45857 97.9181 127.8158 0007862 289.5655 70.4722 15.06359480194941 UPMSat 2 1 46276U 20061E 24039.07435778 .00016640 00000-0 58922-3 0 9999 2 46276 97.3168 107.2056 0000901 148.0263 212.1032 15.29197882190267 AmicalSat 1 46287U 20061R 24039.71820293 .00027565 00000-0 98337-3 0 9994 2 46287 97.3693 107.6931 0001863 8.9391 351.1882 15.28850393189731 SALSAT 1 46495U 20068K 24039.42814119 .00009411 00000-0 56853-3 0 9997 2 46495 97.8004 355.8293 0015699 42.0227 318.2203 15.10812246184709 CAPE 3 1 47309U 21002A 24039.82274797 .00796374 29514-3 17220-2 0 9996 2 47309 60.6542 204.9120 0011521 51.3675 308.8476 15.97927453171134 AO-109 1 47311U 21002C 24039.82267219 .00138502 00000-0 13268-2 0 9997 2 47311 60.6695 214.9016 0025011 71.4653 288.9169 15.65518003170957 ExoCube 2 1 47319U 21002L 24039.50764520 .00117329 00000-0 12499-2 0 9996 2 47319 60.6667 220.0678 0026237 72.5051 287.8919 15.62878545170791 UVSQ-SAT 1 47438U 21006AB 24039.44112549 .00035442 00000-0 10230-2 0 9999 2 47438 97.3500 99.3563 0007076 329.4042 30.6788 15.35574744168755 YUSAT 1 1 47439U 21006AC 24039.44538573 .00060990 00000-0 13729-2 0 9991 2 47439 97.3494 101.6928 0006112 319.7073 40.3721 15.43068861168905 SOMP 2b 1 47445U 21006AJ 24039.06494386 .00031881 00000-0 96737-3 0 9997 2 47445 97.3467 97.7613 0007257 339.0057 21.0887 15.34018087168641 IDEASSat 1 47458U 21006AX 24039.71738312 .00030122 00000-0 95565-3 0 9998 2 47458 97.3562 99.1552 0006719 337.5442 22.5505 15.32612841168708 CubeSX-Sirius-HSE 1 47951U 21022V 24039.78098826 .00020404 00000-0 94560-3 0 9996 2 47951 97.4766 298.9449 0014204 228.9985 131.0023 15.20022389158888 CubeSX-HSE 1 47952U 21022W 24039.74274910 .00019882 00000-0 91948-3 0 9998 2 47952 97.4763 298.9790 0014203 228.4889 131.5128 15.20100198158888 KSU-Cubesat 1 47954U 21022Y 24039.66539021 .00024106 00000-0 10566-2 0 9999 2 47954 97.4773 299.7487 0013354 224.9589 135.0566 15.21910087158643 GRBAlpha 1 47959U 21022AD 24039.78141166 .00020463 00000-0 94330-3 0 9990 2 47959 97.4769 299.1424 0013986 228.4431 131.5605 15.20207652157712 Orbicraft-Zorkiy 1 47960U 21022AE 24039.78402582 .00023402 00000-0 10358-2 0 9997 2 47960 97.4807 300.0298 0013411 225.1678 134.8469 15.21582922158440 STECCO 1 47962U 21022AG 24039.81514852 .00059146 00000-0 16891-2 0 9999 2 47962 97.4776 305.6365 0007786 184.0468 176.0714 15.35779182158140 MO-110 1 47964U 21022AJ 24039.73879665 .00062208 00000-0 16647-2 0 9990 2 47964 97.4791 306.6541 0009233 179.9030 180.2218 15.37778325158194 FEES 1 48082U 21022AL 24039.74033621 .02369681 54055-2 34625-2 0 9991 2 48082 97.4585 314.1601 0011156 136.4037 223.8128 16.06413785158399 TUBIN 1 48900U 21059X 24039.75839383 .00017772 00000-0 70708-3 0 9991 2 48900 97.6248 181.2865 0007684 173.0795 187.0550 15.25306656145169 IT-SPINS 1 49017U 21013G 24039.22509784 .00466626 92623-4 15632-2 0 9998 2 49017 51.5751 335.5326 0008743 139.8091 220.3561 15.89511973146488 LEDSAT 1 49069U 21073D 24039.75703186 .00016575 00000-0 76753-3 0 9991 2 49069 97.4546 112.1582 0021628 21.2110 339.0017 15.19971693136768 CUTE 1 49263U 21088D 24039.44840388 .00015711 00000-0 85083-3 0 9992 2 49263 97.5163 106.7203 0016052 166.0007 194.1673 15.14597198129979 TeikyoSat 4 1 49396U 21102B 24039.56821753 .00002781 00000-0 20804-3 0 9997 2 49396 97.4791 88.9754 0013807 3.4562 356.6757 15.03476647123277 Z-Sat 1 49399U 21102E 24039.78411841 .00005297 00000-0 35694-3 0 9995 2 49399 97.4527 90.4861 0020545 346.3299 13.7370 15.06920409123496 KOSEN 1 1 49402U 21102H 24039.66345268 .00007365 00000-0 46271-3 0 9997 2 49402 97.4455 91.3997 0018777 332.3040 27.7187 15.09401756123598 HO-113 1 50466U 21131B 24039.83952622 .00001102 00000-0 36868-3 0 9992 2 50466 98.5350 125.5295 0004913 143.1018 217.0508 14.39347288111394 Tevel-3 1 50988U 22002E 24039.78385432 .00060479 00000-0 14480-2 0 9999 2 50988 97.4010 112.0621 0005416 110.9133 249.2694 15.41220693114982 Tevel-8 1 50989U 22002F 24039.74990019 .00060109 00000-0 14443-2 0 9998 2 50989 97.4028 112.1112 0005299 109.2229 250.9592 15.41114501114979 Tevel-5 1 50998U 22002Q 24039.80512435 .00068336 00000-0 15348-2 0 9992 2 50998 97.4005 112.8806 0005909 103.0040 257.1867 15.43104642115042 Tevel-6 1 50999U 22002R 24039.80532219 .00067409 00000-0 15160-2 0 9997 2 50999 97.4004 112.8663 0005895 102.8638 257.3269 15.43069136115043 Tevel-1 1 51013U 22002AF 24039.80342020 .00062003 00000-0 14885-2 0 9992 2 51013 97.4002 111.9765 0005196 110.0119 250.1688 15.41132709114984 IRIS-A 1 51044U 22002BN 24039.83482903 .00019590 00000-0 76428-3 0 9999 2 51044 97.4040 107.2617 0007951 124.5623 235.6367 15.25934496114667 Tevel-7 1 51062U 22002CG 24039.81022432 .00060984 00000-0 14614-2 0 9995 2 51062 97.4023 112.1429 0005289 109.4586 250.7233 15.41191636114980 Tevel-4 1 51063U 22002CH 24039.76562593 .00059621 00000-0 14372-2 0 9994 2 51063 97.4020 112.0420 0005266 109.1740 251.0077 15.41019271114975 Tevel-2 1 51069U 22002CP 24039.78393239 .00061065 00000-0 14609-2 0 9999 2 51069 97.4007 112.0288 0005360 110.6363 249.5459 15.41241378114983 SO-115 1 51080U 22002DA 24039.15782849 .00088149 00000-0 15555-2 0 9995 2 51080 97.4303 118.0469 0005826 134.9599 225.2125 15.50056042115141 SO-114 1 51081U 22002DB 24038.44250473 .00097302 00000-0 16750-2 0 9999 2 51081 97.4293 117.3934 0005834 139.6030 220.5656 15.50723413115049 OreSat0 1 52017U 22026K 24039.59217947 .00044453 00000-0 11872-2 0 9990 2 52017 97.5054 49.6598 0014890 335.3140 24.7390 15.37857829105702 Planetum 1 1 52738U 22057G 24039.33221730 .00033250 00000-0 11225-2 0 9996 2 52738 97.5523 162.0995 0005568 246.6338 113.4317 15.30598742 94643 Foresail-1 1 52766U 22057AL 24039.28040489 .00020244 00000-0 78469-3 0 9994 2 52766 97.5663 162.4919 0009936 224.7626 135.2811 15.26130403 94607 SNUGLITE 2 1 52899U 22065F 24039.84506099 .00002643 00000-0 55785-3 0 9995 2 52899 98.0966 183.7152 0007566 189.2389 170.8674 14.60185750 85388 IO-117 1 53106U 22080B 24036.98324556 -.00000003 00000-0 00000-0 0 9998 2 53106 70.1299 238.4559 0008315 132.7634 227.3726 6.42557805 36778 SelfieSat 1 53951U 22057BC 24039.32765540 .00050865 00000-0 14336-2 0 9992 2 53951 97.5556 164.0351 0006835 239.2545 120.8026 15.36239466 94742 FO-118 1 54684U 22167C 24039.83236145 .00027859 00000-0 12051-2 0 9997 2 54684 97.5859 182.5586 0011140 237.5807 122.4352 15.22355758 64570 SSS-2B 1 56184U 23054G 24039.78005679 .00031482 00000-0 10208-2 0 9999 2 56184 97.3869 297.5016 0006326 286.0658 73.9887 15.31907016 46274 CIRBE 1 56188U 23054L 24039.27084067 .00047307 00000-0 13175-2 0 9994 2 56188 97.3805 297.5223 0004488 276.4722 83.6012 15.36643149 46244 INSPIRE-Sat 7 1 56211U 23054AK 24039.25732301 .00045690 00000-0 12147-2 0 9991 2 56211 97.3841 298.3985 0007968 248.9810 111.0583 15.38072705 46293 RoseyCubesat 1 1 56212U 23054AL 24039.66831209 .00052305 00000-0 13262-2 0 9994 2 56212 97.3842 299.0912 0007711 244.8778 115.1669 15.39499131 46373 SO-120 1 56992U 23084BU 24039.76463472 .00026923 00000-0 12416-2 0 9993 2 56992 97.5192 158.6957 0015363 117.8789 242.4004 15.20118016 36477 MRC-100 1 56993U 23084BV 24039.26088670 .00030569 00000-0 13770-2 0 9997 2 56993 97.5196 158.3117 0014949 119.0545 241.2189 15.20903779 36413 UmKA 1 (RS40S) 1 57172U 23091G 24039.81984721 .00007706 00000-0 53532-3 0 9996 2 57172 97.6334 93.2295 0016918 198.2547 161.8075 15.05704248 34019 CubeBel-2 (EU11S) 1 57175U 23091K 24039.80050767 .00009103 00000-0 63068-3 0 9990 2 57175 97.6335 93.0913 0014988 209.1660 150.8731 15.05777935 34000 VERONIKA 1 58261U 23174F 24039.75876659 .00018744 00000-0 98159-3 0 9999 2 58261 97.4759 116.2127 0012936 339.0357 21.0343 15.15786973 14073 KAFASAT 1 58317U 23174BP 24039.79267071 .00021735 00000-0 10766-2 0 9998 2 58317 97.4708 116.4096 0011451 316.8173 43.2162 15.17728998 14098 ENSO 1 58470U 23185J 24039.77596090 .00015620 00000-0 75661-3 0 9996 2 58470 97.4458 108.2308 0014223 18.0204 342.1532 15.18547479 10475 EIRSAT-1 1 58472U 23185L 24039.77539321 .00017427 00000-0 84122-3 0 9991 2 58472 97.4451 108.2236 0013993 19.0185 341.1568 15.18645473 10473 SO-121 1 58567U 23174CY 24039.17526397 .00033422 00000-0 16519-2 0 9994 2 58567 97.4715 115.7190 0014328 326.9100 33.1236 15.17678152 13992 Clark sat-1 (AMBITIOUS) 1 58613U 98067WE 24039.74447862 .00147906 00000-0 16565-2 0 9995 2 58613 51.6349 234.4384 0008752 220.1964 139.8383 15.61654914 8204 BeliefSat-0 1 58695U 24001B 24039.79657527 .00220763 00000-0 88404-3 0 9993 2 58695 9.6641 142.8951 0006792 221.0393 138.9311 15.84404921 6106 /EX